Location: PSU-Greenbush Astrophysical Observatory
(37.5140°N, 94.9880°W)
Time: 18:30:42
(UTC-06:00)

deb Explorer IX - Pass Details

Date: 28 January 2020
Orbit: 549 x 1099 km, 38.8° (Epoch: 24 February)

Event Time Altitude Azimuth Distance (km) Brightness Sun altitude
Rises 20:45:43 0° 245° (WSW) 3,529 ? -37.0°
Reaches altitude 10° 20:48:11 10° 243° (WSW) 2,663 ? -37.5°
Enters shadow 20:51:34 34° 236° (WSW) 1,575 ? -38.2°
Maximum altitude 20:54:41 73° 160° (SSE) 1,076 - -38.8°
Drops below altitude 10° 21:01:54 10° 78° (ENE) 2,931 - -40.2°
Sets 21:04:43 0° 76° (ENE) 3,905 - -40.8°
